Location: Middle Street
(51.7167°N, 0.0333°E)
Time: 23:36:43
(UTC+00:00)

Cosmos 1833 Rocket - Pass Details

Date: 20 January 2021
Orbit: 833 x 839 km, 71.0° (Epoch: 01 March)

Event Time Altitude Azimuth Distance (km) Brightness Sun altitude
Rises 19:29:44 0° 329° (NNW) 3,393 6.3 -27.6°
Reaches altitude 10° 19:32:11 10° 331° (NNW) 2,455 5.5 -28.0°
Enters shadow 19:36:45 58° 351° (N) 969 2.9 -28.7°
